1491495929.56, 0.000348734939135, -0.000426992851602, -0.000188500398757, 0.555404582721, -0.00751710155148, 0.0127580466337, 0.831448419881
1491495929.6, 0.000332228422696, -0.000411556589803, -0.000209989443985, 0.555429591251, -0.00749472984076, 0.0128036832452, 0.831431214162
1491495929.62, 0.00167312062434, 0.000155047968773, -0.000309227965139, 0.554982534344, -0.0079809647671, 0.0127454048638, 0.831726063935
1491495929.65, 0.00167684977578, 0.000308705953135, -0.000305840407247, 0.554976012755, -0.00798574322123, 0.01280506775, 0.831729453255
1491495929.68, 0.00166756620646, 0.000477899452479, -0.000307828755869, 0.554969527887, -0.00799269223476, 0.0128632978165, 0.831732815005
1491495929.71, 0.00163972611644, 0.000640202247461, -0.000293199136656, 0.555004391612, -0.00799253209856, 0.0129070225397, 0.831708875444
1491495929.74, 0.00441152346686, 0.000537446070448, -0.000915369774625, 0.55409830318, -0.0104517095915, 0.0136068300548, 0.832274405683
1491495929.77, 0.00445487340974, 0.000673172250393, -0.000921636902813, 0.554078597767, -0.0104684487743, 0.0136544584425, 0.832286534099
1491495929.8, 0.00449042552597, 0.000803351838626, -0.000913848435843, 0.554082782603, -0.0104732616934, 0.013694022352, 0.832283037532
1491495929.83, 0.00401873950097, 0.00162662295129, -0.000810233471028, 0.554167201562, -0.0106015577796, 0.01367051011, 0.832225592516
1491495929.86, 0.00405103093097, 0.00176651459944, -0.000784465885054, 0.554151226299, -0.0106155551547, 0.0137185676773, 0.832235260777
1491495929.89, 0.00408172220875, 0.00190625156869, -0.00075239256757, 0.554150343437, -0.0106083700035, 0.013758259866, 0.832235285024
1491495929.92, 0.004131924888, 0.00154516089494, -0.000663347875466, 0.554218477752, -0.0107103688606, 0.0137653490714, 0.832188489515
1491495929.95, 0.0041207516964, 0.00167569938695, -0.000619214333102, 0.554202393043, -0.0107227338291, 0.0137957730758, 0.832198538313
1491495929.98, 0.00410194614225, 0.00180930608961, -0.000576790259337, 0.554210078185, -0.0107325143081, 0.0138375235412, 0.832192601095
1491495930.01, 0.00406661461528, 0.0019369482529, -0.000535214589934, 0.554224126401, -0.0107255678335, 0.013877534899, 0.83218266861
1491495930.04, 0.00458154031746, 0.00143403650942, -0.000515086336451, 0.554225409372, -0.0108441801101, 0.0138508554943, 0.832180721458
1491495930.07, 0.00460515551276, 0.00149831119169, -0.000476872649027, 0.554293499031, -0.0108275629645, 0.0138580261576, 0.832135467291
1491495930.1, 0.00461338804508, 0.00158177860272, -0.000409552332738, 0.554272388532, -0.0108405224492, 0.0138934289493, 0.832148769762
1491495930.13, 0.00529775491946, 0.00110293777842, -0.000460046466886, 0.554235787447, -0.0108778433695, 0.0138540582672, 0.832173316988
1491495930.16, 0.00538545967365, 0.00112616731657, -0.000394358659099, 0.554263681046, -0.0108484197058, 0.0138665750678, 0.83215491452
1491495930.19, 0.00544675014892, 0.00119054525588, -0.000326182616048, 0.554206685124, -0.0108542590845, 0.0139163505687, 0.832191967283
1491495930.22, 0.00550744746519, 0.00124134578514, -0.000252919279574, 0.554197682096, -0.0108615098718, 0.0139557126271, 0.832197209108
1491495930.25, 0.00535735109507, 0.00116167867318, 7.80599015015e-05, 0.55420214952, -0.0109023265359, 0.0138877133684, 0.83219483786
1491495930.28, 0.00538716068539, 0.00124811883979, 0.000193747520509, 0.554162278873, -0.0109260981915, 0.0139364104765, 0.83222026262
1491495930.31, 0.00542029233907, 0.00131161627414, 0.000301319292746, 0.554166117557, -0.0109203598319, 0.0139407821677, 0.832217708587
1491495930.34, 0.00503274740423, 0.00129857310109, 0.000967803964206, 0.554155452449, -0.0109978127846, 0.0138945293834, 0.832224563858
1491495930.37, 0.0050020615494, 0.00139636389998, 0.00112524711456, 0.55412599392, -0.0110333459014, 0.0139265435973, 0.832243173312
1491495930.4, 0.00594902390295, 0.000615847778536, 0.000688985124656, 0.554193589038, -0.0110127394094, 0.0139068452083, 0.832198765378
1491495930.4, 0.00594902390295, 0.000615847778536, 0.000688985124656, 0.554193589038, -0.0110127394094, 0.0139068452083, 0.832198765378
1491495930.43, 0.00598519101317, 0.000654676428144, 0.00083798877838, 0.55419987487, -0.0110236300327, 0.0139437472608, 0.832193817682
1491495930.46, 0.00601393821841, 0.000684348989694, 0.000971021843816, 0.554199914364, -0.0110209853865, 0.0139448526445, 0.832193807887
1491495930.49, 0.0060338899471, 0.000710772938743, 0.0011180772758, 0.55423481051, -0.0110170589589, 0.0139404891216, 0.832170692824
1491495930.52, 0.00603671312138, 0.000766586288189, 0.00126837591504, 0.554210715227, -0.0110500964059, 0.013991467546, 0.83218544648
1491495930.55, 0.00593490743387, 0.000319023869656, 0.00111439381273, 0.554251729625, -0.0110627264391, 0.0139601929241, 0.832158488093
1491495930.55, 0.00593490743387, 0.000319023869656, 0.00111439381273, 0.554251729625, -0.0110627264391, 0.0139601929241, 0.832158488093
1491495930.58, 0.00594028149202, 0.000324372191684, 0.00126018023791, 0.554247431794, -0.0110558497794, 0.0139724248625, 0.832161236708
1491495930.61, 0.00594590611895, 0.000326829803549, 0.00140218410062, 0.554223452965, -0.0110636945209, 0.0140068418787, 0.832176524079
1491495930.64, 0.00581388050958, 0.000285462564, 0.0012967960166, 0.55424200697, -0.0110888901847, 0.0139538936234, 0.83216472112
1491495930.67, 0.00581151836511, 0.000293373675656, 0.00143331102924, 0.554208951007, -0.0111022815468, 0.0139993459063, 0.832185794329
1491495930.7, 0.0058203108297, 0.000280160105603, 0.00154449795484, 0.554234984093, -0.0111183834971, 0.0140175939862, 0.832167934383
1491495930.73, 0.00582302200732, 0.000287843367827, 0.00165108351169, 0.554228372721, -0.0111234847194, 0.0140270577731, 0.832172109969
1491495930.76, 0.00592595187776, -0.000213233592641, 0.00113546758709, 0.554235681976, -0.0111340749095, 0.0139941894719, 0.832167653698
1491495930.79, 0.00594236737895, -0.000263387520114, 0.00121081292417, 0.554252781284, -0.0111210807919, 0.0140134800692, 0.832156114186
1491495930.82, 0.00604484208877, -0.000290453005108, 0.00123938501611, 0.554238125606, -0.011123630556, 0.0139508161293, 0.832166894137
1491495930.82, 0.00604484208877, -0.000290453005108, 0.00123938501611, 0.554238125606, -0.011123630556, 0.0139508161293, 0.832166894137
1491495930.85, 0.0060677774765, -0.000337950287184, 0.00133577046448, 0.554248683634, -0.0111250593882, 0.0139770109747, 0.832159403545
1491495930.88, 0.00607380958312, -0.000379721629919, 0.00142972099736, 0.554235173273, -0.0111088255991, 0.0139988277869, 0.832168251931
1491495930.91, 0.00605523835461, -0.000418256426117, 0.00154504083974, 0.554217723429, -0.0111432254059, 0.0140319690062, 0.832178855421
1491495930.94, 0.00169458907445, 0.000186948194204, -0.000850889830189, 0.554222276217, -0.0109606136784, 0.0135494665844, 0.832186244447
1491495930.97, 0.00165823093238, 0.000113003627132, -0.000808334645806, 0.55420666223, -0.010950501001, 0.0135691197932, 0.832196455806
1491495931.0, 0.00161411559097, 2.97815583761e-05, -0.00076589679584, 0.554178270623, -0.0109637295582, 0.0135861340995, 0.832214910924
1491495931.03, 0.00201161914948, -7.36562649902e-07, -0.000800731053391, 0.554201861729, -0.0109458583701, 0.0135093081722, 0.832200686874
1491495931.06, 0.0020022119035, -7.75578809836e-05, -0.000758667857724, 0.554190650841, -0.0109513365979, 0.0135292639584, 0.832207756371
1491495931.09, 0.00199902453332, -0.000190318983398, -0.000704650059046, 0.554201363574, -0.010947851411, 0.0135264395451, 0.832200714128
1491495931.12, 0.00199591856448, -0.000302345246971, -0.000660394872333, 0.554205666604, -0.0109589165496, 0.0135267824625, 0.83219769731
1491495931.15, 0.00249677040588, -0.000161140725684, -0.000727922403825, 0.554182027061, -0.0109395857568, 0.0135033582128, 0.83221407442
1491495931.18, 0.00255105951612, -0.000281407536855, -0.000696761091616, 0.554194456695, -0.0109259237054, 0.0135181400669, 0.832205736732
1491495931.21, 0.00268959817054, -0.000220686982422, -0.000558666564224, 0.554192262738, -0.0109555357324, 0.0135343088758, 0.832206545661
1491495931.21, 0.00268959817054, -0.000220686982422, -0.000558666564224, 0.554192262738, -0.0109555357324, 0.0135343088758, 0.832206545661
1491495931.24, 0.00273616718761, -0.000318087524826, -0.000495305531749, 0.554204857658, -0.0109626984559, 0.0135477185624, 0.832197845655
1491495931.27, 0.00278859278581, -0.000420849698503, -0.000440721785352, 0.55418712468, -0.0109545099326, 0.0135360502545, 0.832209952413
1491495931.3, 0.00282827107044, -0.000512915272806, -0.000378949055316, 0.554158522968, -0.0109753403732, 0.0135499363375, 0.8322284978
1491495931.33, 0.00312232885416, -0.000276690138562, -0.000345085335143, 0.554167023028, -0.0109636397221, 0.0135396888238, 0.832223158785
1491495931.36, 0.00318755203945, -0.000365453252256, -0.000284673493251, 0.554188015683, -0.0109581073412, 0.0135481190401, 0.832209115323
1491495931.39, 0.00324716056072, -0.000454372709759, -0.000215463442126, 0.554184854806, -0.0109687719366, 0.0135905224347, 0.832210388331
1491495931.42, 0.00331668349121, -0.000555398652462, -0.000141073146594, 0.554181805668, -0.010957107371, 0.0136029383242, 0.832212369611
1491495931.45, 0.00346243826956, -0.000418143342009, -0.000260959674426, 0.554170500565, -0.0109890701156, 0.0136121043872, 0.832219326413
1491495931.48, 0.00352571001891, -0.00049386969014, -0.000182421753012, 0.554165326523, -0.010994821003, 0.0136224316862, 0.83222252682
1491495931.51, 0.00358319542627, -0.000563361034967, -0.000116855878944, 0.554149007894, -0.0109696832482, 0.0136275446974, 0.832233640948
1491495931.54, 0.00355752234121, -0.000755602346203, -0.000268105919897, 0.554151470867, -0.0109927811709, 0.0136201685824, 0.832231816927
1491495931.57, 0.00360099610973, -0.000833538886048, -0.000203325919607, 0.55414398203, -0.0109914579399, 0.0136285024182, 0.832236684456
1491495931.61, 0.00363390593238, -0.00091117012935, -0.00014339779624, 0.554134649888, -0.0109981744989, 0.0136155699973, 0.832243021121
1491495931.64, 0.00397317806632, -0.000727119221709, -0.000189710701496, 0.554099422328, -0.0109935275812, 0.0136072249772, 0.832266673582
1491495931.64, 0.00397317806632, -0.000727119221709, -0.000189710701496, 0.554099422328, -0.0109935275812, 0.0136072249772, 0.832266673582
1491495931.67, 0.00403487775748, -0.000807331009374, -0.000131038777693, 0.554095872895, -0.0109693444297, 0.0136235901978, 0.832269088044
1491495931.7, 0.00409257458277, -0.000889632967878, -8.08436196732e-05, 0.55409693644, -0.0109617350716, 0.0136322400701, 0.832268338592
1491495931.73, 0.00414919736505, -0.000980630971678, -2.02730281939e-05, 0.55407841686, -0.0109558788447, 0.0136428818025, 0.83228057076
1491495931.76, 0.0043623304394, -0.00106744190459, 7.10427366658e-05, 0.554090009268, -0.0109623629288, 0.0136529654013, 0.832272602435
1491495931.79, 0.00443199271776, -0.00113989291759, 0.000132006174103, 0.554077952298, -0.0109619958541, 0.0136821017962, 0.832280155665
1491495931.82, 0.00450480959149, -0.00121881197203, 0.000203061083467, 0.554094322313, -0.0109633682649, 0.0137005764113, 0.832268935346
1491495931.85, 0.00449462747669, -0.00130173355755, 0.000176071970446, 0.554090228752, -0.010967822746, 0.0137054858375, 0.832271521154
1491495931.88, 0.00455595833608, -0.00138321389035, 0.000231552098798, 0.554093785592, -0.0109817465287, 0.0137187304545, 0.832268751333
1491495931.91, 0.00464934639782, -0.00102224416496, 0.00046567588483, 0.554088862872, -0.0109914497611, 0.0137124338573, 0.832272004354
1491495931.91, 0.00464934639782, -0.00102224416496, 0.00046567588483, 0.554088862872, -0.0109914497611, 0.0137124338573, 0.832272004354
1491495931.94, 0.00469688016856, -0.00107763139748, 0.000524158916383, 0.554085929359, -0.0110027375066, 0.0137113681038, 0.832273825756
1491495931.97, 0.00473997119454, -0.00113573406843, 0.000579059013501, 0.554078529442, -0.0109996492128, 0.0137069913966, 0.832278865114
1491495932.0, 0.0047828743987, -0.00119243687027, 0.000631641393069, 0.554096901865, -0.010994624199, 0.0137294920783, 0.832266329146
1491495932.03, 0.00554797207778, -0.00175250488881, 0.000184216095823, 0.554247627737, -0.0108394032086, 0.0138244116134, 0.83216642574
1491495932.03, 0.00554797207778, -0.00175250488881, 0.000184216095823, 0.554247627737, -0.0108394032086, 0.0138244116134, 0.83216642574
1491495932.06, 0.00558894669643, -0.00182978708731, 0.000222925044205, 0.554258142052, -0.0108228710619, 0.0138352930891, 0.832159457133
1491495932.09, 0.00561834063312, -0.00189826407866, 0.000250684861641, 0.554262441571, -0.0108331896829, 0.0138444310597, 0.832156307188
1491495932.12, 0.0056378194201, -0.00196894354231, 0.000283224616232, 0.554238300309, -0.0108287937425, 0.0138536329143, 0.832172290185
1491495932.15, 0.00563463943408, -0.00196370558393, 0.000119579781128, 0.55421295815, -0.0108353272873, 0.0138253191658, 0.832189553678
1491495932.18, 0.0056608169857, -0.00205890220367, 0.000143491623331, 0.554204128321, -0.010837214838, 0.0138205254367, 0.832195489055
1491495932.21, 0.00568867174104, -0.002165509966, 0.000174610309741, 0.554194905118, -0.0108318071861, 0.0138428895605, 0.83220132991
1491495932.24, 0.00557692677146, -0.00286335109108, 0.000104088923044, 0.554187972154, -0.010835357862, 0.0138836885209, 0.832205220924
1491495932.27, 0.00558336863796, -0.00301505425401, 0.000120508463804, 0.554176953128, -0.0108531288797, 0.0138947567881, 0.832212142395
1491495932.3, 0.0055789246645, -0.00316600068286, 0.000139585566233, 0.554191722718, -0.0108357960798, 0.0139002700804, 0.832202440808
1491495932.33, 0.00583900372304, -0.00278716130655, 0.000126025312515, 0.554217646718, -0.010820839384, 0.0138849237795, 0.832185627365
1491495932.33, 0.00583900372304, -0.00278716130655, 0.000126025312515, 0.554217646718, -0.010820839384, 0.0138849237795, 0.832185627365
1491495932.36, 0.00583329386129, -0.00289540684729, 0.000137783347799, 0.554182551307, -0.0108372788975, 0.0139121455518, 0.832208330539
1491495932.39, 0.00582160051614, -0.00299959801108, 0.000143224951358, 0.55419531287, -0.0108356310322, 0.0139226414054, 0.832199678172
1491495932.42, 0.005804397182, -0.00311158859189, 0.000146835657203, 0.554186384439, -0.0108494952212, 0.0139420333291, 0.832205118623
1491495932.45, 0.00624741812749, -0.00281076297775, 0.000133744168716, 0.554199685004, -0.0108461958646, 0.0139427010876, 0.832196293108
1491495932.48, 0.00625098734772, -0.00291223593198, 0.000140955787138, 0.554201604051, -0.0108394342968, 0.0139496147917, 0.832194987355
1491495932.51, 0.00624915888159, -0.00301252747056, 0.000153742696923, 0.554229639976, -0.0108372925462, 0.0139599183802, 0.832176171217
1491495932.54, 0.00688065129834, -0.00269724150637, -9.28563264025e-05, 0.554235515622, -0.0108153171481, 0.0139292221006, 0.832173058269
1491495932.57, 0.00693066646982, -0.00278579419725, -8.57322986409e-05, 0.554237417215, -0.0107920924649, 0.0139299246975, 0.832172081542
1491495932.6, 0.00697649149662, -0.0028802325032, -8.09539982675e-05, 0.554224273105, -0.0108066509185, 0.0139504019931, 0.832180303589
1491495932.63, 0.00702384728439, -0.00298488097846, -8.775410266e-05, 0.554202127896, -0.0107852377259, 0.013962639292, 0.832195124227
1491495932.66, 0.00718576903257, -0.0023601171356, -0.000102992931668, 0.554209052522, -0.0107736230083, 0.0139467256694, 0.832190930011
1491495932.69, 0.00724841099268, -0.00243518183562, -0.000111536293769, 0.554211126324, -0.0107712222992, 0.0139459062148, 0.83218959374
1491495932.72, 0.00727033411662, -0.00189232936576, -0.000650618405031, 0.554254359977, -0.0107849138816, 0.0139296248765, 0.832160895278
1491495932.72, 0.00727033411662, -0.00189232936576, -0.000650618405031, 0.554254359977, -0.0107849138816, 0.0139296248765, 0.832160895278
1491495932.75, 0.00734334608702, -0.00197462079544, -0.000663457801003, 0.554267981689, -0.010784460536, 0.0139365748923, 0.832151711988
1491495932.78, 0.00741972483372, -0.00205853603647, -0.00068092569879, 0.554266481989, -0.0107857214744, 0.0139359810281, 0.832152704489
1491495932.81, 0.0075034791945, -0.0021422014935, -0.000697677269214, 0.554282449991, -0.0107924790032, 0.0139349899892, 0.832141997548
1491495932.84, 0.00722855330212, -0.00197191060929, -0.000636735333132, 0.554282459471, -0.0107939285326, 0.0139336737835, 0.832141994472
1491495932.87, 0.0072810991039, -0.00203829601674, -0.00065690395963, 0.554278610443, -0.0108076399404, 0.0139474501822, 0.832144149507
1491495932.9, 0.00732946642598, -0.00211012025787, -0.00067290656658, 0.554290036548, -0.010813900383, 0.0139502002598, 0.832136411206
1491495932.93, 0.0073433861737, -0.00221242882329, -0.000705940634903, 0.55431381473, -0.0108376218896, 0.0139826759212, 0.832119718265
1491495932.96, 0.00737247339064, -0.00229480382696, -0.000717627793215, 0.554305503206, -0.0108415277629, 0.0139906028051, 0.832125070782
1491495932.99, 0.00739329415175, -0.00238189294084, -0.000721910137837, 0.554292508502, -0.0108216406843, 0.0140046254771, 0.832133749813
1491495933.02, 0.00740865906488, -0.00245725233452, -0.000726799125768, 0.554273439476, -0.0108098859374, 0.0139877304756, 0.832146888508
1491495933.05, 0.00753201440401, -0.00259164368309, -0.000731198657518, 0.554291530912, -0.0107978615016, 0.0139484620612, 0.832135653216
1491495933.08, 0.00755783667698, -0.00267204027863, -0.000735242252241, 0.554294221945, -0.0107905780518, 0.0139439803659, 0.832134030283
1491495933.11, 0.00757699225818, -0.00275479550861, -0.000734285317229, 0.554305609168, -0.0107990161176, 0.0139546977165, 0.832126155884
1491495933.14, 0.00640745914272, -0.00181106773848, -0.00087351152408, 0.554348621171, -0.0108140127437, 0.0139054782166, 0.832098131839
1491495933.17, 0.00640438880565, -0.00185493752869, -0.000874305104365, 0.554344878901, -0.0108215235643, 0.0139034908606, 0.832100560513
1491495933.2, 0.00640400057781, -0.00189938907354, -0.00087385745292, 0.554352108155, -0.0108461828348, 0.0139093796662, 0.832095324863
1491495933.23, 0.00645451629852, -0.00186523255341, -0.000934103137472, 0.554363972111, -0.0108636209419, 0.0138938379507, 0.832087452995
1491495933.26, 0.00647397528569, -0.00190598726038, -0.00094603079186, 0.554373028422, -0.0108535989294, 0.0139029998579, 0.832081397066
1491495933.29, 0.00648776714331, -0.00194830755253, -0.000951643744947, 0.554379812129, -0.010826284147, 0.01390439727, 0.832077209886
1491495933.32, 0.00649417999337, -0.00198820529011, -0.000954010261003, 0.554362650945, -0.0108260427121, 0.0139326090983, 0.832088174679
1491495933.35, 0.00624636730468, -0.0015788220586, -0.000979879378872, 0.554338361853, -0.0108488846999, 0.0139233511137, 0.83210421377
1491495933.38, 0.00624878449265, -0.00160195210973, -0.00098140728314, 0.554334246286, -0.0108436833765, 0.0139385827034, 0.832106768292
1491495933.41, 0.00649857985993, -0.00164642606901, -0.000981247012313, 0.554320642157, -0.0108375361503, 0.013898203823, 0.832116586434
1491495933.41, 0.00649857985993, -0.00164642606901, -0.000981247012313, 0.554320642157, -0.0108375361503, 0.013898203823, 0.832116586434
1491495933.44, 0.00652966033133, -0.00167794389708, -0.00097633862557, 0.554349425219, -0.0108347162667, 0.0138987443092, 0.83209743936
1491495933.47, 0.00656024284589, -0.00169041946401, -0.000975377907102, 0.554338679937, -0.010823809577, 0.0139237017841, 0.832104322547
1491495933.5, 0.0065896753929, -0.0017028159665, -0.000978850322583, 0.554328287798, -0.0108338860973, 0.0139380201796, 0.832110874735
1491495933.53, 0.00659558556282, -0.00150679115191, -0.000947360925358, 0.554324612665, -0.0108508851965, 0.0139211433829, 0.832113384012
1491495933.53, 0.00659558556282, -0.00150679115191, -0.000947360925358, 0.554324612665, -0.0108508851965, 0.0139211433829, 0.832113384012
1491495933.56, 0.0066200328339, -0.00150561091405, -0.000941935320066, 0.554338189804, -0.0108635348578, 0.0139304656589, 0.832104018174
1491495933.59, 0.00664293549313, -0.00150767123653, -0.000935152851674, 0.554345429204, -0.0108741659028, 0.0139219464598, 0.83209919904
1491495933.62, 0.00665929013141, -0.00150474513521, -0.00092591877541, 0.554343939573, -0.0108813273881, 0.0139125032526, 0.832100255754
1491495933.65, 0.00674319791209, -0.00150335564295, -0.00120079083366, 0.554359298464, -0.0108884994773, 0.0138983221322, 0.832090166645
1491495933.68, 0.00677302732775, -0.00148922914538, -0.00121408380455, 0.554366472045, -0.0108730802109, 0.0138779527722, 0.832085928991
1491495933.71, 0.00680084702196, -0.0014727071558, -0.00123454307174, 0.554384703114, -0.0108935779024, 0.013875440959, 0.832073556275
1491495933.74, 0.00655945462888, -0.00107224299774, -0.00108439398368, 0.554372432013, -0.0109083165956, 0.0138627207111, 0.832081750928
1491495933.77, 0.00658433764377, -0.00104094311295, -0.00109444624743, 0.554359871554, -0.0109112845624, 0.0138651402818, 0.832090039938
1491495933.8, 0.00661019014634, -0.00100919122335, -0.00110915559518, 0.554340906728, -0.0109288067622, 0.013870725636, 0.832102351446
1491495933.83, 0.00637599258258, -0.000345719046937, -0.00115766593253, 0.554349101327, -0.0109545926849, 0.0138487236355, 0.832096919602
1491495933.86, 0.00638937015481, -0.000291435363909, -0.00117920641655, 0.554356104603, -0.0109645308775, 0.013852821864, 0.83209205481
1491495933.89, 0.00640759275991, -0.000244142540508, -0.0012125244892, 0.554358850085, -0.0109774431545, 0.0138517572097, 0.832090073187
1491495933.92, 0.00626249465726, -0.000338908246432, -0.00112843707142, 0.554347083989, -0.010976166086, 0.0138270263303, 0.832098340098
1491495933.95, 0.00627472418352, -0.000313672761192, -0.00116525925388, 0.554334073775, -0.0109625131792, 0.0138464841318, 0.832106863831
1491495933.98, 0.00629334912162, -0.00028049065109, -0.00118700385038, 0.554308163491, -0.0109671314669, 0.0138698365247, 0.832123674431
1491495934.01, 0.0062711975117, -0.00014004826746, -0.00106290151576, 0.55431243788, -0.0109414836606, 0.0138575628827, 0.832121369211
1491495934.01, 0.0062711975117, -0.00014004826746, -0.00106290151576, 0.55431243788, -0.0109414836606, 0.0138575628827, 0.832121369211
1491495934.04, 0.00627608280319, -0.000107984090949, -0.00110234832333, 0.554280158636, -0.010962768772, 0.0138823750582, 0.832142177218
1491495934.07, 0.00627061331228, -8.15285367261e-05, -0.00115559153978, 0.554273747098, -0.0109532939782, 0.0138987792745, 0.832146298774
1491495934.1, 0.00606061036611, -0.000280900055352, -0.00102843756048, 0.554291803923, -0.0109688419742, 0.0138989457718, 0.832134063667
1491495934.1, 0.00606061036611, -0.000280900055352, -0.00102843756048, 0.554291803923, -0.0109688419742, 0.0138989457718, 0.832134063667
1491495934.13, 0.00602490382198, -0.00025315167662, -0.00106992237145, 0.554309972121, -0.0109873838332, 0.0138873524658, 0.832121910327
1491495934.16, 0.00598595471695, -0.000201221485978, -0.00111994296216, 0.554307805208, -0.0109794138022, 0.0139155484585, 0.832122987947
1491495934.19, 0.00594366110189, -0.000164898946076, -0.00114581128175, 0.554340679179, -0.0109680354983, 0.0139205162524, 0.832101155408
1491495934.22, 0.00416263817721, -0.000647721799092, -0.000989394326677, 0.554389340931, -0.0110003745622, 0.0137371005158, 0.83207135661
1491495934.22, 0.00416263817721, -0.000647721799092, -0.000989394326677, 0.554389340931, -0.0110003745622, 0.0137371005158, 0.83207135661
1491495934.25, 0.00411389628337, -0.000634537805831, -0.000992212714799, 0.554355016489, -0.0109886699048, 0.0137406244883, 0.832094321616
1491495934.28, 0.00406158097504, -0.000637931255786, -0.00099896940494, 0.554351604597, -0.0109960360912, 0.013722063854, 0.832096803644
1491495934.31, 0.00424911295876, -0.000696259424438, -0.00108392559304, 0.554352030117, -0.0109955253002, 0.0137001354229, 0.83209688824
1491495934.31, 0.00424911295876, -0.000696259424438, -0.00108392559304, 0.554352030117, -0.0109955253002, 0.0137001354229, 0.83209688824
1491495934.34, 0.00422895045561, -0.000686566636517, -0.00109649437272, 0.5543484108, -0.0109867912396, 0.0136949986643, 0.832099499383